ICEYE-X7

Last updated on Thu Oct 29 2020 00:02:02 GMT+0000 (Coordinated Universal Time)

1 46496U 20068L 20302.60643845 .00001102 00000-0 86517-4 0 9993 2 46496 97.6654 235.7893 0016311 138.6635 32.3501 15.02866251 4496

Satellite not in orbit

ICEYE-X7